Location: Unspecified
(35.7250°N, 0.0000°E)
Time: 00:27:28
(UTC+00:00)

Vanguard 2 - Pass Details

Date: 17 June 2019
Orbit: 553 x 2938 km, 32.9° (Epoch: 22 July)

Event Time Altitude Azimuth Distance (km) Brightness Sun altitude
Rises 17:03:36 0° 276° (W) 6,049 13.5 24.6°
Reaches altitude 10° 17:08:37 10° 263° (W) 5,338 13.3 23.6°
Maximum altitude 17:19:54 23° 220° (SW) 4,711 12.0 21.4°
Drops below altitude 10° 17:31:59 10° 177° (S) 5,677 11.8 19.0°
Sets 17:37:43 0° 164° (SSE) 6,507 11.9 17.9°
